Location: Campos dos Goitacazes
(21.7500°S, 41.3000°W)
Time: 13:10:55
(UTC-03:00)

Tiangong - Pass Details

Date: 28 June 2024
Orbit: 374 x 378 km, 41.5° (Epoch: 16 July)

Event Time Altitude Azimuth Distance (km) Brightness Sun altitude
Exits shadow 05:17:42 22° 303° (WNW) 888 -0.7 -15.1°
Maximum altitude 05:18:10 23° 317° (NW) 865 -0.6 -15.0°
Drops below altitude 10° 05:20:47 10° 13° (NNE) 1,407 1.1 -14.5°
Sets 05:23:01 0° 27° (NNE) 2,227 2.5 -14.0°
